SCP
0 0 0 0 0 0 0 0 0 0 0 0 0 0 0 0 0 0 0 0 0 0 0 0 0 0 0 0 0 0 0 0 0 0 0 0 0 0 0 0 0 0 0
0 0 0 0 0 0 0 0 0 0 0 0 0 0 0 0 0 0 0 0 0 0 0 0 0 0 0 0 0 0 0 0 0 0 0 0 0 0 0 0 0 0 0
0 0 0 0 0 0 0 0 0 0 0 0 0 0 0 0 0 0 0 0 0 0 0 0 0 0 0 0 0 0 0 0 0 0 0 0 0 0 0 0 0 0 0
0 0 0 0 0 0 0 0 0 0 0 0 0 0 0 0 0 0 0 0 0 0 0 0 0 0 0 0 0 0 0 0 0 0 0 0 0 0 0 0 0 0 0
0 0 0 0 0 0 0 0 0 0 0 0 0 0 0 0 0 0 0 0 0 0 0 0 0 0 0 0 0 0 0 0 0 0 0 0 0 0 0 0 0 0 0
0 0 0 0 0 0 0 0 0 0 0 0 0 0 0 0 0 0 0 0 0 0 0 0 0 0 0 0 0 0 0 0 0 0 0 0 0 0 0 0 0 0 0
0 0 0 0 0 0 0 0 0 0 0 0 0 0 0 0 0 0 0 0 0 0 0 0 0 0 0 0 0 0 0 0 0 0 0 0 0 0 0 0 0 0 0
0 0 0 0 0 0 0 0 0 0 0 0 0 0 0 0 0 0 0 0 0 0 0 0 0 0 0 0 0 0 0 0 0 0 0 0 0 0 0 0 0 0 0
0 0 0 0 0 0 0 0 0 0 0 0 0 0 0 0 0 0 0 0 0 0 0 0 0 0 0 0 0 0 0 0 0 0 0 0 0 0 0 0 0 0 0
0 0 0 0 0 0 0 0 0 0 0 0 0 0 0 0 0 0 0 0 0 0 0 0 0 0 0 0 0 0 0 0 0 0 0 0 0 0 0 0 0 0 0
0 0 0 0 0 0 0 0 0 0 0 0 0 0 0 0 0 0 0 0 0 0 0 0 0 0 0 0 0 0 0 0 0 0 0 0 0 0 0 0 0 0 0
0 0 0 0 0 0 0 0 0 0 0 0 0 0 0 0 0 0 0 0 0 0 0 0 0 0 0 0 0 0 0 0 0 0 0 0 0 0 0 0 0 0 0
0 0 0 0 0 0 0 0 0 0 0 0 0 0 0 0 0 0 0 0 0 0 0 0 0 0 0 0 0 0 0 0 0 0 0 0 0 0 0 0 0 0 0
0 0 0 0 0 0 0 0 0 0 0 0 0 0 0 0 0 0 0 0 0 0 0 0 0 0 0 0 0 0 0 0 0 0 0 0 0 0 0 0 0 0 0
0 0 0 0 0 0 0 0 0 0 0 0 0 0 0 0 0 0 0 0 0 0 0 0 0 0 0 0 0 0 0 0 0 0 0 0 0 0 0 0 0 0 0
0 0 0 0 0 0 0 0 0 0 0 0 0 0 0 0 0 0 0 0 0 0 0 0 0 0 0 0 0 0 0 0 0 0 0 0 0 0 0 0 0 0 0
0 0 0 0 0 0 0 0 0 0 0 0 0 0 0 0 0 0 0 0 0 0 0 0 0 0 0 0 0 0 0 0 0 0 0 0 0 0 0 0 0 0 0
0 0 0 0 0 0 0 0 0 0 0 0 0 0 0 0 0 0 0 0 0 0 0 0 0 0 0 0 0 0 0 0 0 0 0 0 0 0 0 0 0 0 0
0 0 0 0 0 0 0 0 0 0 0 0 0 0 0 0 0 0 0 0 0 0 0 0 0 0 0 0 0 0 0 0 0 0 0 0 0 0 0 0 0 0 0
0 0 0 0 0 0 0 0 0 0 0 0 0 0 0 0 0 0 0 0 0 0 0 0 0 0 0 0 0 0 0 0 0 0 0 0 0 0 0 0 0 0 0
0 0 0 0 0 0 0 0 0 0 0 0 0 0 0 0 0 0 0 0 0 0 0 0 0 0 0 0 0 0 0 0 0 0 0 0 0 0 0 0 0 0 0
0 0 0 0 0 0 0 0 0 0 0 0 0 0 0 0 0 0 0 0 0 0 0 0 0 0 0 0 0 0 0 0 0 0 0 0 0 0 0 0 0 0 0
0 0 0 0 0 0 0 0 0 0 0 0 0 0 0 0 0 0 0 0 0 0 0 0 0 0 0 0 0 0 0 0 0 0 0 0 0 0 0 0 0 0 0
0 0 0 0 0 0 0 0 0 0 0 0 0 0 0 0 0 0 0 0 0 0 0 0 0 0 0 0 0 0 0 0 0 0 0 0 0 0 0 0 0 0 0
0 0 0 0 0 0 0 0 0 0 0 0 0 0 0 0 0 0 0 0 0 0 0 0 0 0 0 0 0 0 0 0 0 0 0 0 0 0 0 0 0 0 0
0 0 0 0 0 0 0 0 0 0 0 0 0 0 0 0 0 0 0 0 0 0 0 0 0 0 0 0 0 0 0 0 0 0 0 0 0 0 0 0 0 0 0
Wind_Speed
5 6 6 6 6 6 6 5 5 4 3 3 2 2 2 2 3 3 4 4 4 4 3 3 2 3 2 3 3 3 3 2 2 2 2 1 1 2 2 2 2 2 2
6 6 5 5 5 5 5 5 5 4 3 2 2 2 2 2 2 2 2 3 3 3 3 3 2 3 2 3 3 3 2 2 2 2 1 2 1 1 1 1 1 1 2
7 7 6 5 5 5 4 4 4 4 4 3 2 2 2 1 1 2 1 1 2 2 2 3 2 2 2 2 2 2 2 2 2 2 1 1 1 2 1 1 1 1 1
7 6 6 5 5 5 4 4 5 4 4 3 2 2 1 1 1 1 2 1 1 1 1 1 2 2 2 1 1 2 1 1 2 2 1 0 0 1 2 2 0 0 0
7 7 6 5 5 5 4 4 4 4 3 2 2 2 1 1 1 1 2 2 1 1 0 1 1 1 1 1 2 1 1 1 1 1 1 2 1 1 1 2 2 2 1
7 7 6 6 5 5 4 4 4 4 3 3 2 2 2 2 2 1 1 1 1 1 1 0 0 1 1 1 1 1 1 1 1 1 1 1 1 1 1 2 2 3 2
5 6 7 6 5 5 5 4 4 4 4 3 3 2 2 2 3 2 2 1 1 1 2 1 1 0 0 1 1 1 1 1 1 1 1 0 1 1 1 1 2 3 3
5 5 6 6 6 6 5 5 4 4 4 4 3 3 3 2 2 2 1 1 1 1 2 2 1 1 1 1 1 1 1 1 1 1 1 1 1 1 1 1 1 3 3
5 5 5 5 5 5 5 5 4 4 4 4 3 3 3 2 2 2 1 1 1 1 2 2 2 2 2 2 1 1 2 1 1 2 2 2 1 1 1 1 1 1 2
5 5 4 4 5 5 4 4 4 4 3 3 3 3 3 3 3 2 3 3 2 2 2 2 3 2 2 2 2 2 2 2 2 1 2 2 2 2 1 1 1 1 2
4 4 4 4 4 4 4 4 3 3 3 3 3 3 3 3 3 3 3 3 2 3 3 3 3 3 3 3 3 3 3 3 3 2 2 3 2 2 2 2 2 2 2
4 4 4 4 4 4 4 4 4 3 3 3 3 3 3 3 3 4 3 3 3 3 3 3 3 3 3 3 3 4 3 3 3 3 3 3 2 3 2 2 3 3 3
3 3 4 4 4 4 4 4 4 3 3 3 3 2 3 3 4 3 3 3 3 3 3 3 4 4 3 3 4 4 4 4 4 4 4 3 3 4 3 3 3 3 3
3 3 3 3 4 4 4 4 3 3 3 2 2 3 3 3 3 3 3 3 3 3 3 3 4 4 4 4 3 3 3 3 4 4 4 4 4 4 4 4 4 3 3
3 3 3 2 2 3 3 3 3 3 3 3 3 3 3 3 3 3 3 3 3 3 3 3 3 3 3 3 3 3 3 3 4 4 4 4 5 6 5 4 3 3 3
3 3 3 3 2 3 3 2 2 3 2 3 3 3 3 3 3 3 2 3 3 3 3 3 3 3 3 5 6 4 3 4 4 5 4 4 5 7 9 10 8 6 5
2 2 2 2 2 2 2 3 2 2 3 3 3 3 3 3 3 3 3 3 3 3 3 4 4 4 5 6 7 7 4 4 4 4 4 4 4 6 4 7 9 9 11
1 2 2 2 2 2 2 2 2 2 3 3 3 3 3 3 3 3 3 3 3 3 3 4 4 4 5 7 7 7 4 4 5 5 5 4 4 4 5 4 4 5 6
1 1 1 1 1 2 2 2 2 2 3 3 3 3 3 3 3 4 4 3 3 3 3 3 4 4 5 7 7 6 3 4 5 5 4 5 5 8 8 5 5 5 5
1 0 0 0 1 2 2 2 3 3 4 4 3 3 3 3 4 4 4 3 3 4 3 4 4 5 5 7 8 7 3 4 4 4 4 7 7 8 9 5 5 6 5
1 1 1 1 2 2 2 3 3 4 4 3 2 3 3 4 4 3 3 2 3 3 3 4 4 4 5 7 8 8 4 4 4 3 3 4 8 9 10 8 5 8 6
2 2 2 2 2 2 3 4 5 4 3 2 3 3 3 3 3 3 3 3 3 3 4 4 4 3 4 5 7 8 8 6 4 4 3 4 8 9 10 8 8 10 7
3 2 3 3 3 3 4 5 5 3 3 3 4 4 4 3 3 3 4 3 3 3 3 3 4 3 3 4 7 8 9 9 5 4 7 8 9 9 7 9 10 7 4
3 2 3 3 4 4 4 5 4 3 3 4 4 4 4 3 3 3 3 3 3 3 3 3 3 3 3 3 3 3 4 6 5 4 6 9 9 7 7 7 6 4 4
3 3 4 4 5 4 4 4 3 3 4 4 4 4 4 4 3 3 3 4 4 4 4 4 3 3 4 5 7 4 3 3 4 4 3 3 3 3 3 3 4 3 3
3 3 4 4 4 4 4 4 3 4 4 4 4 3 3 3 3 3 3 5 6 7 7 7 7 6 8 10 10 10 9 9 9 5 4 4 4 5 4 4 4 3 4
Wind_Direction
121 115 114 114 109 106 106 110 110 105 106 104 99 97 90 81 73 67 60 47 36 25 29 31 32 23 23 13 6 10 10 3 356 353 330 304 141 108 96 75 62 58 58
127 123 122 123 117 116 114 115 115 110 100 99 103 104 107 104 105 87 67 54 44 25 21 24 28 22 16 18 13 15 6 350 14 16 337 338 334 330 122 106 100 58 55
145 142 141 134 128 124 125 127 118 111 104 96 94 89 84 83 91 103 96 67 62 49 29 18 26 15 21 22 5 17 22 350 347 36 47 21 316 323 300 220 141 101 73
143 144 145 141 140 135 132 130 121 112 109 108 113 118 128 139 152 148 147 141 111 82 41 20 24 17 14 7 349 37 13 6 340 341 12 202 214 314 312 297 259 129 98
145 144 145 145 139 136 137 132 119 114 115 124 139 143 134 137 136 146 152 151 145 144 105 36 23 13 15 12 7 16 13 360 348 333 329 320 309 246 230 289 306 315 272
143 142 143 139 136 136 138 137 135 139 148 161 168 168 162 159 164 183 171 180 178 179 174 160 332 345 7 358 345 336 347 334 328 323 323 322 319 325 300 287 303 297 279
141 146 151 150 150 150 150 156 156 158 165 173 181 183 186 186 193 197 189 195 190 191 196 186 215 235 268 288 312 321 309 291 295 295 302 320 284 305 305 292 293 294 285
150 155 158 157 158 160 161 166 170 171 175 180 187 190 195 196 205 210 201 206 206 199 179 189 213 220 223 269 277 271 263 256 250 265 265 266 274 273 260 260 292 300 292
149 154 154 153 155 161 168 169 171 173 177 185 188 194 200 204 210 220 220 220 217 203 187 200 218 222 216 229 245 256 265 253 236 241 245 245 254 245 251 263 221 235 282
149 151 152 156 158 161 163 162 169 178 179 184 193 196 204 209 210 213 219 220 220 211 207 218 220 223 224 222 226 244 254 253 241 232 239 249 251 239 226 235 249 227 231
154 154 155 158 157 154 156 161 170 177 179 189 200 202 209 204 210 220 221 219 220 218 218 221 221 223 228 225 221 231 236 240 246 242 233 241 246 246 233 226 233 238 231
150 154 157 157 159 164 166 173 179 182 183 186 201 212 209 202 215 225 224 216 220 221 218 219 224 229 230 227 224 233 233 233 238 243 241 242 239 245 242 235 235 237 234
157 158 162 165 168 171 173 176 179 181 180 179 196 209 210 214 222 225 224 220 221 223 220 217 222 227 230 232 233 233 233 231 232 233 238 243 236 243 242 238 240 243 249
165 175 180 177 171 171 173 173 174 173 176 182 200 211 219 222 225 228 228 226 223 224 226 226 226 225 227 231 235 237 239 239 238 234 233 235 235 242 242 242 240 242 251
181 185 188 185 176 173 174 170 175 174 174 186 204 217 226 227 227 229 230 231 232 233 230 229 231 228 226 227 229 241 244 241 246 244 240 235 233 238 241 244 237 237 244
195 185 186 191 194 189 180 176 183 178 175 196 212 216 222 226 226 227 229 231 235 237 235 234 232 232 235 238 238 241 242 243 241 246 246 243 240 244 251 254 252 242 239
199 196 196 198 200 192 184 191 190 180 192 211 217 211 212 219 225 229 230 234 235 235 238 238 233 235 240 244 245 245 242 241 244 245 246 251 247 246 242 255 260 260 259
218 195 190 204 205 184 181 185 184 193 207 218 218 209 207 220 224 226 234 238 238 237 238 241 238 240 243 241 243 245 241 241 246 245 243 244 249 243 237 238 247 250 255
210 212 191 200 207 201 193 184 200 206 217 223 222 215 210 222 227 229 235 236 236 243 244 241 238 242 248 242 243 237 228 240 250 252 250 245 244 253 251 241 247 257 258
129 152 171 225 228 227 186 193 216 218 227 226 220 216 218 226 231 233 236 238 234 239 243 246 239 238 245 245 241 233 221 238 249 253 253 253 254 259 259 243 239 255 258
213 207 212 226 231 217 190 221 231 231 229 219 220 226 227 228 232 235 235 238 240 244 247 249 248 240 241 248 241 234 223 230 244 252 254 253 262 264 265 260 244 252 258
236 218 218 237 235 210 204 227 234 229 214 214 226 233 232 231 227 226 238 238 234 241 248 252 257 249 244 239 238 241 243 247 241 249 253 255 265 267 265 263 257 263 267
242 222 223 241 240 218 209 229 237 216 206 219 231 234 233 230 221 216 225 234 231 234 242 242 250 256 247 246 249 252 255 260 256 253 260 268 270 272 266 258 260 261 252
244 230 232 244 249 234 223 231 231 205 208 226 235 233 229 233 230 222 215 221 229 235 241 245 251 259 259 252 246 243 252 260 263 264 266 273 272 264 258 263 260 243 234
245 234 234 243 252 248 238 235 224 207 220 228 232 235 231 229 232 233 228 229 232 229 237 239 238 248 258 253 256 260 250 246 250 270 262 257 255 248 246 245 241 231 233
247 247 245 248 254 252 246 240 224 213 221 231 230 228 227 228 227 235 262 256 247 258 256 252 249 254 257 268 269 267 266 266 266 267 255 255 250 248 249 249 245 234 232